When you browse on this site, cookies collect data to enhance your experience and personalize the content and advertising you see.
Visit our Privacy Policy to learn more. By continuing to use the site, you agree to this use of cookies and data.
  • In France
  • List of Countries
  • For 7 days
  • Water Temperature
  • Weather Map
  • Weather Widgets
  • user-avatar
    Login

    Hourly Weather Mangotsfield

    Today, 26 May, Tuesday

    Time Temperature Precipitation Wind Pressure Humidity
    00:00 +11°C° 0 mm 1 mps 771 mmHg 78%
    01:00 +11°C° 0 mm 1 mps 771 mmHg 78%
    02:00 +11°C° 0 mm 1 mps 771 mmHg 78%
    03:00 +11°C° 0 mm 1 mps 771 mmHg 78%
    04:00 +12°C° 0 mm 1 mps 771 mmHg 77%
    05:00 +12°C° 0 mm 1 mps 771 mmHg 76%
    06:00 +13°C° 0 mm 1 mps 771 mmHg 74%
    07:00 +15°C° 0 mm 1 mps 771 mmHg 70%
    08:00 +16°C° 0 mm 1 mps 772 mmHg 67%
    09:00 +19°C° 0 mm 1 mps 772 mmHg 64%
    10:00 +18°C° 0 mm 2 mps 772 mmHg 63%
    11:00 +19°C° 0 mm 2 mps 772 mmHg 61%
    12:00 +20°C° 0 mm 2 mps 772 mmHg 60%
    13:00 +20°C° 0 mm 2 mps 772 mmHg 63%
    14:00 +20°C° 0 mm 2 mps 772 mmHg 65%
    15:00 +20°C° 0 mm 2 mps 772 mmHg 68%
    16:00 +20°C° 0 mm 2 mps 772 mmHg 71%
    17:00 +20°C° 0 mm 2 mps 771 mmHg 75%
    18:00 +20°C° 0 mm 2 mps 771 mmHg 78%
    19:00 +19°C° 0 mm 1 mps 771 mmHg 82%
    20:00 +18°C° 0 mm 1 mps 772 mmHg 86%
    21:00 +15°C° 0 mm 1 mps 772 mmHg 90%
    22:00 +15°C° 0 mm 1 mps 772 mmHg 90%
    23:00 +14°C° 0 mm 2 mps 772 mmHg 91%

    Tomorrow, 27 May, Wednesday

    Time Temperature Precipitation Wind Pressure Humidity
    00:00 +14°C° 0 mm 2 mps 772 mmHg 92%
    01:00 +13°C° 0 mm 2 mps 772 mmHg 90%
    02:00 +12°C° 0 mm 2 mps 771 mmHg 89%
    03:00 +12°C° 0 mm 2 mps 771 mmHg 88%
    04:00 +12°C° 0 mm 2 mps 771 mmHg 86%
    05:00 +13°C° 0 mm 2 mps 771 mmHg 84%
    06:00 +13°C° 0 mm 2 mps 771 mmHg 82%
    07:00 +15°C° 0 mm 2 mps 772 mmHg 77%
    08:00 +16°C° 0 mm 2 mps 772 mmHg 73%
    09:00 +18°C° 0 mm 2 mps 772 mmHg 68%
    10:00 +19°C° 0 mm 2 mps 772 mmHg 67%
    11:00 +20°C° 0 mm 2 mps 771 mmHg 66%
    12:00 +21°C° 0 mm 2 mps 771 mmHg 66%
    13:00 +21°C° 0 mm 2 mps 771 mmHg 64%
    14:00 +21°C° 0 mm 3 mps 771 mmHg 63%
    15:00 +22°C° 0 mm 3 mps 771 mmHg 61%
    16:00 +21°C° 0 mm 3 mps 771 mmHg 64%
    17:00 +21°C° 0 mm 2 mps 771 mmHg 67%
    18:00 +20°C° 0 mm 2 mps 770 mmHg 71%
    19:00 +18°C° 0 mm 2 mps 771 mmHg 74%
    20:00 +17°C° 0 mm 2 mps 771 mmHg 77%
    21:00 +15°C° 0 mm 2 mps 771 mmHg 79%
    22:00 +14°C° 0 mm 2 mps 771 mmHg 83%
    23:00 +14°C° 0 mm 2 mps 771 mmHg 86%

    Day after tomorrow, 28 May, Thursday

    Time Temperature Precipitation Wind Pressure Humidity
    00:00 +13°C° 0 mm 2 mps 771 mmHg 89%
    01:00 +13°C° 0 mm 2 mps 771 mmHg 91%
    02:00 +12°C° 0 mm 2 mps 770 mmHg 92%
    03:00 +12°C° 0 mm 2 mps 770 mmHg 94%
    04:00 +13°C° 0 mm 1 mps 770 mmHg 92%
    05:00 +13°C° 0 mm 1 mps 770 mmHg 91%
    06:00 +14°C° 0 mm 1 mps 770 mmHg 89%
    07:00 +15°C° 0 mm 2 mps 770 mmHg 82%
    08:00 +16°C° 0 mm 2 mps 770 mmHg 76%
    09:00 +18°C° 0 mm 3 mps 770 mmHg 70%
    10:00 +19°C° 0 mm 3 mps 769 mmHg 67%
    11:00 +20°C° 0 mm 3 mps 769 mmHg 64%
    12:00 +21°C° 0 mm 4 mps 769 mmHg 61%
    13:00 +21°C° 0 mm 4 mps 768 mmHg 62%
    14:00 +21°C° 0 mm 4 mps 768 mmHg 63%
    15:00 +21°C° 0 mm 4 mps 768 mmHg 63%
    16:00 +21°C° 0 mm 4 mps 767 mmHg 67%
    17:00 +21°C° 0 mm 4 mps 767 mmHg 70%
    18:00 +20°C° 0 mm 4 mps 767 mmHg 73%
    19:00 +18°C° 0 mm 4 mps 767 mmHg 75%
    20:00 +16°C° 0 mm 3 mps 767 mmHg 76%
    21:00 +13°C° 0 mm 3 mps 767 mmHg 78%
    22:00 +12°C° 0 mm 3 mps 767 mmHg 77%
    23:00 +11°C° 0 mm 3 mps 767 mmHg 75%

    29 May, Friday

    Time Temperature Precipitation Wind Pressure Humidity
    00:00 +10°C° 0 mm 3 mps 766 mmHg 74%
    01:00 +9°C° 0 mm 3 mps 766 mmHg 75%
    02:00 +9°C° 0 mm 3 mps 766 mmHg 76%
    03:00 +8°C° 0 mm 2 mps 766 mmHg 78%
    04:00 +9°C° 0 mm 3 mps 765 mmHg 78%
    05:00 +10°C° 0 mm 3 mps 765 mmHg 78%
    06:00 +11°C° 0 mm 3 mps 765 mmHg 78%
    07:00 +13°C° 0 mm 3 mps 765 mmHg 74%
    08:00 +15°C° 0 mm 4 mps 765 mmHg 70%
    09:00 +18°C° 0 mm 4 mps 765 mmHg 66%
    10:00 +19°C° 0 mm 4 mps 765 mmHg 63%
    11:00 +20°C° 0 mm 5 mps 764 mmHg 60%
    12:00 +21°C° 0 mm 5 mps 764 mmHg 57%
    13:00 +21°C° 0 mm 5 mps 764 mmHg 56%
    14:00 +21°C° 0 mm 5 mps 764 mmHg 56%
    15:00 +22°C° 0 mm 4 mps 763 mmHg 55%
    16:00 +21°C° 0 mm 4 mps 763 mmHg 60%
    17:00 +21°C° 0 mm 3 mps 763 mmHg 66%
    18:00 +20°C° 0 mm 3 mps 763 mmHg 71%
    19:00 +18°C° 0 mm 3 mps 763 mmHg 74%
    20:00 +16°C° 0 mm 2 mps 763 mmHg 77%
    21:00 +14°C° 0 mm 2 mps 763 mmHg 80%
    22:00 +14°C° 0 mm 2 mps 763 mmHg 78%
    23:00 +12°C° 0 mm 3 mps 763 mmHg 76%

    30 May, Saturday

    Time Temperature Precipitation Wind Pressure Humidity
    00:00 +11°C° 0 mm 3 mps 763 mmHg 74%
    01:00 +10°C° 0 mm 3 mps 763 mmHg 74%
    02:00 +10°C° 0 mm 2 mps 763 mmHg 74%
    03:00 +9°C° 0 mm 2 mps 763 mmHg 74%
    04:00 +10°C° 0 mm 2 mps 763 mmHg 76%
    05:00 +12°C° 0 mm 2 mps 763 mmHg 77%
    06:00 +12°C° 0 mm 2 mps 763 mmHg 79%
    07:00 +14°C° 0 mm 2 mps 763 mmHg 76%
    08:00 +16°C° 0 mm 2 mps 763 mmHg 73%
    09:00 +18°C° 0 mm 2 mps 763 mmHg 71%
    10:00 +19°C° 0 mm 3 mps 763 mmHg 67%
    11:00 +20°C° 0 mm 3 mps 763 mmHg 64%
    12:00 +21°C° 0 mm 3 mps 763 mmHg 61%
    13:00 +21°C° 0 mm 3 mps 762 mmHg 60%
    14:00 +22°C° 0 mm 3 mps 762 mmHg 60%
    15:00 +23°C° 0 mm 2 mps 762 mmHg 59%
    16:00 +21°C° 0 mm 2 mps 762 mmHg 63%
    17:00 +21°C° 0 mm 2 mps 762 mmHg 68%
    18:00 +21°C° 0 mm 2 mps 761 mmHg 72%
    19:00 +19°C° 0 mm 2 mps 761 mmHg 76%
    20:00 +18°C° 0 mm 2 mps 762 mmHg 80%
    21:00 +16°C° 0 mm 2 mps 762 mmHg 85%
    22:00 +15°C° 0 mm 2 mps 762 mmHg 86%
    23:00 +14°C° 0 mm 2 mps 762 mmHg 87%

    31 May, Sunday

    Time Temperature Precipitation Wind Pressure Humidity
    00:00 +13°C° 0 mm 2 mps 762 mmHg 88%
    01:00 +13°C° 0 mm 2 mps 761 mmHg 88%
    02:00 +12°C° 0 mm 1 mps 761 mmHg 88%
    03:00 +11°C° 0 mm 1 mps 761 mmHg 88%
    04:00 +12°C° 0 mm 1 mps 761 mmHg 87%
    05:00 +12°C° 0 mm 1 mps 761 mmHg 86%
    06:00 +13°C° 0 mm 2 mps 761 mmHg 85%
    07:00 +14°C° 0 mm 2 mps 761 mmHg 80%
    08:00 +16°C° 0 mm 2 mps 761 mmHg 75%
    09:00 +17°C° 0 mm 3 mps 761 mmHg 69%
    10:00 +18°C° 0 mm 2 mps 761 mmHg 66%
    11:00 +19°C° 0 mm 2 mps 761 mmHg 64%
    12:00 +20°C° 0 mm 2 mps 761 mmHg 61%
    13:00 +21°C° 0 mm 2 mps 760 mmHg 60%
    14:00 +21°C° 0 mm 2 mps 760 mmHg 59%
    15:00 +23°C° 0 mm 1 mps 760 mmHg 58%
    16:00 +22°C° 0 mm 1 mps 760 mmHg 62%
    17:00 +22°C° 0 mm 1 mps 760 mmHg 66%
    18:00 +22°C° 0 mm 1 mps 759 mmHg 71%
    19:00 +20°C° 0 mm 1 mps 759 mmHg 76%
    20:00 +19°C° 0 mm 1 mps 759 mmHg 80%
    21:00 +16°C° 0 mm 2 mps 759 mmHg 85%
    22:00 +15°C° 0 mm 2 mps 759 mmHg 86%
    23:00 +15°C° 0 mm 2 mps 759 mmHg 88%
    Show more